Location: Recife
(8.0585°S, 34.8848°W)
Time: 15:46:15
(UTC-03:00)

Transit 2A - Pass Details

Date: 21 April 2026
Orbit: 594 x 950 km, 66.7° (Epoch: 12 May)

Event Time Altitude Azimuth Distance (km) Brightness Sun altitude
Rises 19:42:07 0° 220° (SW) 3,468 9.7 -36.7°
Reaches altitude 10° 19:44:52 10° 231° (SW) 2,572 9.1 -37.4°
Maximum altitude 19:50:00 29° 289° (WNW) 1,622 8.0 -38.7°
Enters shadow 19:53:22 18° 334° (NNW) 2,110 8.5 -39.5°
